KC1FX Weather Reports


Display with metric or nautical units.
time (UTC)temp
F
wind
direction
speed
MPH
gust
MPH
rain 1hr
in
rain 24hr
in
rain mn
in
humidity
%
barometer
mb
20260509120003 39 0 0.0 0.0 0.00 0.01 0.00 86 1012.1
20260509110003 33 90 0.0 3.0 0.00 0.01 0.00 99 1012.0
20260509100005 30 90 2.0 3.0 0.00 0.01 0.00 99 1011.9
20260509090003 30 90 0.0 4.0 0.00 0.01 0.00 99 1011.1
20260509080003 31 90 2.0 3.0 0.00 0.01 0.00 99 1011.4
20260509070024 32 90 4.0 4.0 0.00 0.01 0.00 97 1011.4
20260509060024 32 90 3.0 4.0 0.00 0.01 0.00 96 1011.2
20260509050003 34 90 3.0 3.0 0.00 0.01 0.00 94 1011.0
20260509040004 35 90 4.0 4.0 0.00 0.01 0.00 92 1010.8
20260509030002 36 90 5.0 6.0 0.00 0.01 0.01 85 1010.3
20260509020003 37 90 6.0 6.0 0.00 0.01 0.01 84 1009.9
20260509010003 39 302 5.0 5.0 0.00 0.01 0.01 79 1009.3
20260509000003 42 310 0.0 3.0 0.00 0.01 0.01 63 1008.6
20260508230002 48 312 2.0 4.0 0.00 0.01 0.01 55 1008.3
20260508220003 51 360 4.0 5.0 0.00 0.01 0.01 50 1007.8
20260508210003 51 218 4.0 5.0 0.00 0.01 0.01 48 1007.6
20260508200003 51 327 4.0 7.0 0.00 0.01 0.01 50 1007.6
20260508190003 48 330 3.0 8.0 0.00 0.01 0.01 54 1007.6
20260508180003 49 200 5.0 6.0 0.00 0.01 0.01 53 1007.3
20260508170003 48 269 3.0 9.0 0.00 0.01 0.01 68 1007.3
20260508160004 41 256 4.0 4.0 0.01 0.01 0.01 91 1007.8
20260508150003 46 194 3.0 4.0 0.00 0.00 0.00 70 1007.5
20260508140003 44 180 3.0 4.0 0.00 0.00 0.00 73 1007.5
20260508130003 42 135 3.0 3.0 0.00 0.00 0.00 75 1007.5